| time (UTC) | temp F | wind direction | speed MPH | gust MPH | rain 1hr in | rain 24hr in | rain mn in | humidity % | barometer mb |
| 20260504050346 | 65 | 257 | 9.0 | 21.0 | 0.00 | 0.00 | 0.00 | 43 | 1014.1 |
| 20260504045844 | 65 | 288 | 6.0 | 16.0 | 0.00 | 0.00 | 0.00 | 42 | 1014.1 |
| 20260504045343 | 65 | 303 | 9.0 | 16.0 | 0.00 | 0.00 | 0.00 | 43 | 1014.2 |
| 20260504044841 | 66 | 314 | 13.0 | 15.0 | 0.00 | 0.00 | 0.00 | 42 | 1014.1 |
| 20260504044338 | 66 | 299 | 7.0 | 12.0 | 0.00 | 0.00 | 0.00 | 42 | 1014.2 |
| 20260504043836 | 66 | 301 | 4.0 | 6.0 | 0.00 | 0.00 | 0.00 | 42 | 1014.0 |
| 20260504043332 | 66 | 254 | 7.0 | 13.0 | 0.00 | 0.00 | 0.00 | 42 | 1014.2 |
| 20260504042830 | 66 | 246 | 6.0 | 6.0 | 0.00 | 0.00 | 0.00 | 41 | 1014.1 |
| 20260504042326 | 66 | 188 | 2.0 | 4.0 | 0.00 | 0.00 | 0.00 | 41 | 1013.9 |
| 20260504041822 | 66 | 146 | 0.0 | 4.0 | 0.00 | 0.00 | 0.00 | 41 | 1013.8 |
| 20260504041318 | 66 | 29 | 3.0 | 3.0 | 0.00 | 0.00 | 0.00 | 41 | 1013.9 |
| 20260504040815 | 67 | 66 | 3.0 | 5.0 | 0.00 | 0.00 | 0.00 | 41 | 1014.0 |
| 20260504040313 | 67 | 146 | 0.0 | 5.0 | 0.00 | 0.00 | 0.00 | 40 | 1013.9 |
| 20260504035808 | 67 | 276 | 3.0 | 5.0 | 0.00 | 0.00 | 0.00 | 40 | 1013.7 |
| 20260504035306 | 67 | 183 | 0.0 | 5.0 | 0.00 | 0.00 | 0.00 | 41 | 1013.8 |
| 20260504034803 | 67 | 170 | 2.0 | 4.0 | 0.00 | 0.00 | 0.00 | 40 | 1013.7 |
| 20260504034300 | 68 | 49 | 2.0 | 3.0 | 0.00 | 0.00 | 0.00 | 40 | 1013.6 |
| 20260504033757 | 67 | 242 | 9.0 | 9.0 | 0.00 | 0.00 | 0.00 | 41 | 1013.4 |
| 20260504033255 | 67 | 145 | 3.0 | 6.0 | 0.00 | 0.00 | 0.00 | 41 | 1013.5 |
| 20260504032751 | 68 | 68 | 0.0 | 6.0 | 0.00 | 0.00 | 0.00 | 41 | 1013.2 |
| 20260504032249 | 68 | 247 | 13.0 | 14.0 | 0.00 | 0.00 | 0.00 | 41 | 1013.1 |
| 20260504031745 | 68 | 263 | 12.0 | 17.0 | 0.00 | 0.00 | 0.00 | 40 | 1012.8 |
| 20260504031243 | 68 | 308 | 8.0 | 16.0 | 0.00 | 0.00 | 0.00 | 40 | 1012.7 |
| 20260504030738 | 68 | 282 | 8.0 | 23.0 | 0.00 | 0.00 | 0.00 | 42 | 1012.4 |
| 20260504030236 | 68 | 255 | 14.0 | 22.0 | 0.00 | 0.00 | 0.00 | 41 | 1012.5 |
| 20260504025732 | 68 | 253 | 14.0 | 21.0 | 0.00 | 0.00 | 0.00 | 42 | 1012.5 |
| 20260504025229 | 69 | 269 | 9.0 | 20.0 | 0.00 | 0.00 | 0.00 | 40 | 1012.4 |
| 20260504024726 | 69 | 291 | 8.0 | 19.0 | 0.00 | 0.00 | 0.00 | 39 | 1012.5 |
| 20260504024223 | 69 | 280 | 6.0 | 18.0 | 0.00 | 0.00 | 0.00 | 42 | 1012.7 |
| 20260504023720 | 69 | 268 | 7.0 | 15.0 | 0.00 | 0.00 | 0.00 | 42 | 1012.4 |
| 20260504023215 | 69 | 267 | 5.0 | 24.0 | 0.00 | 0.00 | 0.00 | 42 | 1012.4 |
| 20260504022712 | 70 | 262 | 7.0 | 16.0 | 0.00 | 0.00 | 0.00 | 39 | 1012.2 |
| 20260504022208 | 71 | 249 | 8.0 | 16.0 | 0.00 | 0.00 | 0.00 | 40 | 1012.1 |
| 20260504021706 | 72 | 242 | 9.0 | 15.0 | 0.00 | 0.00 | 0.00 | 37 | 1012.0 |
| 20260504021202 | 73 | 315 | 7.0 | 13.0 | 0.00 | 0.00 | 0.00 | 34 | 1011.8 |
| 20260504020659 | 73 | 312 | 10.0 | 18.0 | 0.00 | 0.00 | 0.00 | 36 | 1011.5 |
| 20260504020155 | 74 | 258 | 6.0 | 13.0 | 0.00 | 0.00 | 0.00 | 36 | 1011.2 |
| 20260504015652 | 74 | 261 | 9.0 | 14.0 | 0.00 | 0.00 | 0.00 | 36 | 1011.1 |
| 20260504015148 | 74 | 257 | 8.0 | 19.0 | 0.00 | 0.00 | 0.00 | 35 | 1011.2 |
| 20260504014644 | 75 | 247 | 11.0 | 12.0 | 0.00 | 0.00 | 0.00 | 34 | 1010.8 |
| 20260504014142 | 75 | 281 | 6.0 | 17.0 | 0.00 | 0.00 | 0.00 | 35 | 1010.8 |
| 20260504013639 | 75 | 259 | 10.0 | 12.0 | 0.00 | 0.00 | 0.00 | 35 | 1010.9 |
| 20260504013136 | 76 | 256 | 10.0 | 18.0 | 0.00 | 0.00 | 0.00 | 32 | 1010.8 |
| 20260504012633 | 77 | 245 | 6.0 | 11.0 | 0.00 | 0.00 | 0.00 | 31 | 1010.9 |
| 20260504012131 | 78 | 318 | 5.0 | 13.0 | 0.00 | 0.00 | 0.00 | 29 | 1010.7 |
| 20260504011622 | 79 | 32 | 2.0 | 8.0 | 0.00 | 0.00 | 0.00 | 27 | 1011.0 |
| 20260504011119 | 80 | 47 | 3.0 | 9.0 | 0.00 | 0.00 | 0.00 | 21 | 1010.6 |
| 20260504010614 | 81 | 253 | 9.0 | 13.0 | 0.00 | 0.00 | 0.00 | 22 | 1010.6 |
| 20260504010111 | 81 | 244 | 5.0 | 6.0 | 0.00 | 0.00 | 0.00 | 24 | 1010.7 |
| 20260504005608 | 81 | 246 | 8.0 | 11.0 | 0.00 | 0.00 | 0.00 | 27 | 1010.6 |
| 20260504005105 | 83 | 34 | 0.0 | 5.0 | 0.00 | 0.00 | 0.00 | 21 | 1010.3 |
| 20260504004603 | 82 | 238 | 6.0 | 10.0 | 0.00 | 0.00 | 0.00 | 23 | 1010.4 |
| 20260504004059 | 83 | 273 | 4.0 | 9.0 | 0.00 | 0.00 | 0.00 | 22 | 1010.4 |
| 20260504003554 | 86 | 330 | 7.0 | 8.0 | 0.00 | 0.00 | 0.00 | 17 | 1010.3 |
| 20260504003051 | 85 | 320 | 2.0 | 9.0 | 0.00 | 0.00 | 0.00 | 16 | 1010.1 |
| 20260504002548 | 84 | 230 | 10.0 | 22.0 | 0.00 | 0.00 | 0.00 | 21 | 1010.3 |
| 20260504002046 | 84 | 315 | 7.0 | 17.0 | 0.00 | 0.00 | 0.00 | 23 | 1010.2 |
| 20260504001544 | 83 | 262 | 17.0 | 25.0 | 0.00 | 0.00 | 0.00 | 22 | 1009.9 |
| 20260504001039 | 85 | 247 | 13.0 | 17.0 | 0.00 | 0.00 | 0.00 | 22 | 1010.3 |
| 20260504000537 | 85 | 271 | 10.0 | 19.0 | 0.00 | 0.00 | 0.00 | 21 | 1010.2 |
| 20260504000034 | 85 | 249 | 16.0 | 22.0 | 0.00 | 0.00 | 0.00 | 21 | 1010.2 |
| 20260503235532 | 86 | 242 | 14.0 | 17.0 | 0.00 | 0.00 | 0.00 | 20 | 1010.0 |
| 20260503235029 | 87 | 243 | 22.0 | 22.0 | 0.00 | 0.00 | 0.00 | 20 | 1010.0 |
| 20260503234526 | 87 | 250 | 13.0 | 20.0 | 0.00 | 0.00 | 0.00 | 20 | 1010.2 |
| 20260503234025 | 87 | 238 | 16.0 | 29.0 | 0.00 | 0.00 | 0.00 | 20 | 1009.8 |
| 20260503233520 | 86 | 247 | 17.0 | 22.0 | 0.00 | 0.00 | 0.00 | 22 | 1009.9 |
| 20260503233017 | 86 | 245 | 9.0 | 26.0 | 0.00 | 0.00 | 0.00 | 22 | 1009.9 |
| 20260503232514 | 85 | 246 | 15.0 | 24.0 | 0.00 | 0.00 | 0.00 | 23 | 1010.0 |
| 20260503232011 | 86 | 234 | 15.0 | 23.0 | 0.00 | 0.00 | 0.00 | 23 | 1010.2 |
| 20260503231509 | 87 | 255 | 16.0 | 20.0 | 0.00 | 0.00 | 0.00 | 23 | 1010.3 |
| 20260503231006 | 88 | 213 | 9.0 | 23.0 | 0.00 | 0.00 | 0.00 | 21 | 1010.3 |
| 20260503230502 | 88 | 236 | 9.0 | 13.0 | 0.00 | 0.00 | 0.00 | 21 | 1010.3 |
| 20260503230000 | 87 | 247 | 10.0 | 26.0 | 0.00 | 0.00 | 0.00 | 21 | 1010.2 |
| 20260503225456 | 88 | 232 | 11.0 | 18.0 | 0.00 | 0.00 | 0.00 | 22 | 1010.1 |
| 20260503224952 | 87 | 235 | 10.0 | 21.0 | 0.00 | 0.00 | 0.00 | 22 | 1010.3 |
| 20260503224449 | 87 | 235 | 9.0 | 19.0 | 0.00 | 0.00 | 0.00 | 23 | 1010.2 |
| 20260503223947 | 87 | 255 | 13.0 | 19.0 | 0.00 | 0.00 | 0.00 | 23 | 1010.2 |
| 20260503223445 | 88 | 244 | 18.0 | 24.0 | 0.00 | 0.00 | 0.00 | 23 | 1009.9 |
| 20260503222940 | 87 | 242 | 19.0 | 24.0 | 0.00 | 0.00 | 0.00 | 22 | 1010.2 |
| 20260503222439 | 89 | 234 | 18.0 | 22.0 | 0.00 | 0.00 | 0.00 | 22 | 1010.1 |
| 20260503221936 | 87 | 229 | 9.0 | 26.0 | 0.00 | 0.00 | 0.00 | 22 | 1009.8 |
| 20260503221434 | 87 | 231 | 23.0 | 28.0 | 0.00 | 0.00 | 0.00 | 22 | 1010.0 |
| 20260503220931 | 87 | 242 | 21.0 | 29.0 | 0.00 | 0.00 | 0.00 | 23 | 1010.1 |
| 20260503220427 | 88 | 230 | 26.0 | 32.0 | 0.00 | 0.00 | 0.00 | 22 | 1010.2 |
| 20260503215924 | 89 | 240 | 12.0 | 19.0 | 0.00 | 0.00 | 0.00 | 21 | 1009.9 |
| 20260503215421 | 87 | 246 | 16.0 | 31.0 | 0.00 | 0.00 | 0.00 | 21 | 1010.1 |
| 20260503214919 | 89 | 237 | 14.0 | 25.0 | 0.00 | 0.00 | 0.00 | 22 | 1010.5 |
| 20260503214416 | 89 | 234 | 15.0 | 25.0 | 0.00 | 0.00 | 0.00 | 20 | 1010.5 |
| 20260503213914 | 88 | 227 | 6.0 | 27.0 | 0.00 | 0.00 | 0.00 | 20 | 1010.5 |
| 20260503213411 | 89 | 253 | 17.0 | 29.0 | 0.00 | 0.00 | 0.00 | 20 | 1010.3 |
| 20260503212908 | 90 | 227 | 6.0 | 20.0 | 0.00 | 0.00 | 0.00 | 19 | 1010.2 |
| 20260503212406 | 90 | 230 | 11.0 | 26.0 | 0.00 | 0.00 | 0.00 | 19 | 1010.4 |
| 20260503211902 | 89 | 231 | 16.0 | 29.0 | 0.00 | 0.00 | 0.00 | 18 | 1010.3 |
| 20260503211359 | 90 | 224 | 15.0 | 26.0 | 0.00 | 0.00 | 0.00 | 18 | 1010.4 |
| 20260503210854 | 90 | 221 | 11.0 | 27.0 | 0.00 | 0.00 | 0.00 | 19 | 1010.5 |
| 20260503210352 | 89 | 240 | 24.0 | 33.0 | 0.00 | 0.00 | 0.00 | 19 | 1010.5 |
| 20260503205847 | 90 | 226 | 13.0 | 24.0 | 0.00 | 0.00 | 0.00 | 19 | 1010.4 |
| 20260503205344 | 89 | 228 | 13.0 | 27.0 | 0.00 | 0.00 | 0.00 | 19 | 1010.4 |
| 20260503204840 | 89 | 230 | 20.0 | 26.0 | 0.00 | 0.00 | 0.00 | 20 | 1010.3 |
| 20260503204337 | 88 | 229 | 27.0 | 30.0 | 0.00 | 0.00 | 0.00 | 21 | 1010.5 |
| 20260503203835 | 88 | 253 | 15.0 | 29.0 | 0.00 | 0.00 | 0.00 | 21 | 1010.4 |
| 20260503203332 | 88 | 242 | 22.0 | 35.0 | 0.00 | 0.00 | 0.00 | 22 | 1010.5 |
| 20260503202829 | 88 | 240 | 21.0 | 30.0 | 0.00 | 0.00 | 0.00 | 22 | 1010.1 |
| 20260503202327 | 90 | 246 | 15.0 | 26.0 | 0.00 | 0.00 | 0.00 | 20 | 1010.4 |
| 20260503201825 | 92 | 253 | 16.0 | 24.0 | 0.00 | 0.00 | 0.00 | 20 | 1010.6 |
| 20260503201321 | 91 | 232 | 16.0 | 19.0 | 0.00 | 0.00 | 0.00 | 19 | 1010.5 |
| 20260503200819 | 90 | 228 | 16.0 | 25.0 | 0.00 | 0.00 | 0.00 | 20 | 1010.5 |
| 20260503200315 | 90 | 264 | 17.0 | 24.0 | 0.00 | 0.00 | 0.00 | 19 | 1010.6 |
| 20260503195812 | 92 | 251 | 10.0 | 17.0 | 0.00 | 0.00 | 0.00 | 17 | 1010.7 |
| 20260503195309 | 91 | 245 | 11.0 | 18.0 | 0.00 | 0.00 | 0.00 | 18 | 1010.8 |
| 20260503194806 | 92 | 258 | 12.0 | 19.0 | 0.00 | 0.00 | 0.00 | 17 | 1010.8 |
| 20260503194302 | 91 | 244 | 11.0 | 18.0 | 0.00 | 0.00 | 0.00 | 18 | 1011.1 |
| 20260503193758 | 92 | 254 | 15.0 | 22.0 | 0.00 | 0.00 | 0.00 | 18 | 1010.9 |
| 20260503193254 | 91 | 232 | 13.0 | 21.0 | 0.00 | 0.00 | 0.00 | 19 | 1011.0 |
| 20260503192750 | 92 | 256 | 11.0 | 18.0 | 0.00 | 0.00 | 0.00 | 18 | 1010.9 |
| 20260503192245 | 91 | 263 | 6.0 | 15.0 | 0.00 | 0.00 | 0.00 | 18 | 1011.1 |
| 20260503191743 | 92 | 231 | 10.0 | 18.0 | 0.00 | 0.00 | 0.00 | 17 | 1011.2 |
| 20260503191240 | 92 | 265 | 11.0 | 17.0 | 0.00 | 0.00 | 0.00 | 18 | 1011.2 |
| 20260503190736 | 91 | 234 | 13.0 | 19.0 | 0.00 | 0.00 | 0.00 | 18 | 1011.2 |
| 20260503190233 | 91 | 260 | 6.0 | 10.0 | 0.00 | 0.00 | 0.00 | 18 | 1011.4 |
| 20260503185731 | 91 | 259 | 9.0 | 15.0 | 0.00 | 0.00 | 0.00 | 18 | 1011.5 |
| 20260503185226 | 92 | 257 | 13.0 | 19.0 | 0.00 | 0.00 | 0.00 | 18 | 1011.6 |
| 20260503184721 | 91 | 244 | 13.0 | 21.0 | 0.00 | 0.00 | 0.00 | 18 | 1011.7 |
| 20260503184217 | 92 | 190 | 4.0 | 15.0 | 0.00 | 0.00 | 0.00 | 18 | 1011.7 |
| 20260503183714 | 91 | 236 | 13.0 | 18.0 | 0.00 | 0.00 | 0.00 | 18 | 1011.8 |
| 20260503183211 | 90 | 245 | 9.0 | 19.0 | 0.00 | 0.00 | 0.00 | 18 | 1011.7 |
| 20260503182709 | 91 | 246 | 9.0 | 17.0 | 0.00 | 0.00 | 0.00 | 17 | 1012.0 |
| 20260503182208 | 91 | 240 | 10.0 | 22.0 | 0.00 | 0.00 | 0.00 | 18 | 1012.0 |
| 20260503181703 | 91 | 248 | 9.0 | 22.0 | 0.00 | 0.00 | 0.00 | 17 | 1012.1 |
| 20260503181200 | 91 | 245 | 12.0 | 15.0 | 0.00 | 0.00 | 0.00 | 17 | 1012.1 |
| 20260503180657 | 91 | 252 | 8.0 | 13.0 | 0.00 | 0.00 | 0.00 | 18 | 1012.1 |
| 20260503180156 | 91 | 235 | 10.0 | 15.0 | 0.00 | 0.00 | 0.00 | 18 | 1012.4 |
| 20260503175652 | 91 | 243 | 5.0 | 5.0 | 0.00 | 0.00 | 0.00 | 16 | 1012.3 |
| 20260503175150 | 91 | 236 | 2.0 | 8.0 | 0.00 | 0.00 | 0.00 | 17 | 1012.3 |
| 20260503174646 | 90 | 233 | 10.0 | 13.0 | 0.00 | 0.00 | 0.00 | 16 | 1012.5 |
| 20260503174143 | 91 | 220 | 2.0 | 16.0 | 0.00 | 0.00 | 0.00 | 17 | 1012.6 |
| 20260503173638 | 90 | 200 | 2.0 | 15.0 | 0.00 | 0.00 | 0.00 | 17 | 1012.5 |
| 20260503173130 | 91 | 264 | 6.0 | 12.0 | 0.00 | 0.00 | 0.00 | 16 | 1012.3 |
| 20260503172626 | 89 | 257 | 12.0 | 15.0 | 0.00 | 0.00 | 0.00 | 18 | 1012.5 |
| 20260503172123 | 89 | 253 | 4.0 | 7.0 | 0.00 | 0.00 | 0.00 | 17 | 1012.5 |
| 20260503171620 | 91 | 233 | 10.0 | 15.0 | 0.00 | 0.00 | 0.00 | 16 | 1012.7 |
| 20260503171117 | 89 | 236 | 9.0 | 18.0 | 0.00 | 0.00 | 0.00 | 16 | 1012.4 |
| 20260503170614 | 90 | 207 | 5.0 | 8.0 | 0.00 | 0.00 | 0.00 | 16 | 1012.6 |
| 20260503170110 | 90 | 231 | 8.0 | 12.0 | 0.00 | 0.00 | 0.00 | 16 | 1012.5 |
| 20260503151006 | 84 | 45 | 2.0 | 2.0 | 0.00 | 0.00 | 0.00 | 18 | 1012.8 |
| 20260503150502 | 84 | 39 | 2.0 | 4.0 | 0.00 | 0.00 | 0.00 | 18 | 1012.9 |
| 20260503131349 | 69 | 17 | 2.0 | 3.0 | 0.00 | 0.00 | 0.00 | 24 | 1011.5 |
| 20260503130847 | 69 | 54 | 0.0 | 2.0 | 0.00 | 0.00 | 0.00 | 24 | 1011.5 |
| 20260503130344 | 68 | 271 | 2.0 | 3.0 | 0.00 | 0.00 | 0.00 | 24 | 1011.4 |
| 20260503110733 | 75 | 188 | 0.0 | 3.0 | 0.00 | 0.00 | 0.00 | 20 | 1011.4 |
| 20260503110230 | 74 | 191 | 0.0 | 3.0 | 0.00 | 0.00 | 0.00 | 21 | 1011.3 |
| 20260503100155 | 73 | 222 | 2.0 | 2.0 | 0.00 | 0.00 | 0.00 | 21 | 1011.4 |
| 20260503090114 | 77 | 76 | 0.0 | 1.0 | 0.00 | 0.00 | 0.00 | 19 | 1012.1 |
| 20260503081550 | 75 | 121 | 0.0 | 1.0 | 0.00 | 0.00 | 0.00 | 21 | 1012.8 |
| 20260503081048 | 75 | 236 | 0.0 | 2.0 | 0.00 | 0.00 | 0.00 | 21 | 1013.0 |
| 20260503080544 | 76 | 18 | 0.0 | 2.0 | 0.00 | 0.00 | 0.00 | 21 | 1012.8 |
| 20260503072517 | 78 | 10 | 2.0 | 2.0 | 0.00 | 0.00 | 0.00 | 22 | 1013.0 |
| 20260503072014 | 78 | 119 | 0.0 | 2.0 | 0.00 | 0.00 | 0.00 | 21 | 1013.2 |
| 20260503071511 | 77 | 125 | 0.0 | 1.0 | 0.00 | 0.00 | 0.00 | 22 | 1013.0 |
| 20260503071008 | 78 | 135 | 0.0 | 1.0 | 0.00 | 0.00 | 0.00 | 22 | 1013.2 |
| 20260503070504 | 77 | 125 | 0.0 | 2.0 | 0.00 | 0.00 | 0.00 | 23 | 1013.3 |